Regional Weather Roundup
Issued by NWS

Home | Current Version | Previous Version | Text Only | Print | Product List | Glossary On
Versions: 1 2 3 4 5 6 7 8 9 10 11 12 13 14 15 16 17 18 19 20 21 22 23 24 25 26 27 28 29 30 31 32 33 34 35 36 37 38 39 40 41 42 43 44 45 46 47 48 49 50
000
ASUS45 KCYS 271110
RWRWY

WYOMING REGIONAL WEATHER ROUNDUP
NATIONAL WEATHER SERVICE CHEYENNE WY
500 AM MDT WED JUL 27 2016

NOTE:  "FAIR" INDICATES FEW OR NO CLOUDS BELOW 12,000 FEET
WITH NO SIGNIFICANT WEATHER AND/OR OBSTRUCTIONS TO VISIBILITY.

WYZ001-271200-
YELLOWSTONE NATIONAL PARK

CITY           SKY/WX    TMP DP  RH WIND       PRES   REMARKS
LK YELLOWSTONE   N/A     43  37  79 CALM      30.39R
W YELLOWSTONE  NOT AVBL

$$
WYZ002>013-054>058-071-098>099-271200-
NORTHERN WYOMING

CITY           SKY/WX    TMP DP  RH WIND       PRES   REMARKS
JACKSON        FAIR      48  36  61 N7        30.28R
CODY           FAIR      61  43  51 NW3       30.20R
GREYBULL       FAIR      65  47  52 CALM      30.09R
WORLAND        FAIR      61  49  64 S3        30.11R
SHERIDAN       FAIR      65  52  62 NW13      30.12R
BUFFALO        FAIR      64  49  57 NW3       30.17R
GILLETTE       FAIR      64  54  69 SW7       30.11F
HULETT         FAIR      61  59  94 CALM      30.15S
NEWCASTLE      LGT RAIN  63  55  77 N8        30.20R

$$
WYZ014>020-022>026-101>103-271200-
CENTRAL WYOMING

CITY           SKY/WX    TMP DP  RH WIND       PRES   REMARKS
BIG PINEY      FAIR      45  29  53 N10       30.30R
PINEDALE       FAIR      43  34  70 W3        30.31R
DUBOIS         CLOUDY    50  32  50 NW9       30.32R HAZE
LANDER         FAIR      60  42  51 E6        30.18R
RIVERTON       FAIR      63  41  44 N7        30.19R
CASPER         FAIR      61  52  72 NE12      30.18S
DOUGLAS          N/A    N/A N/A N/A MISG      30.17F THUNDER

$$
WYZ021-027>030-104>119-271200-
SOUTHERN WYOMING

CITY           SKY/WX    TMP DP  RH WIND       PRES   REMARKS
EVANSTON       FAIR      58  21  24 S8        30.31R
KEMMERER         N/A     52  30  43 NW9       30.31R
FORT BRIDGER   FAIR      66  22  18 SW9       30.32R
ROCK SPRINGS   FAIR      61  31  32 S3        30.27R
DIXON          FAIR      54  39  57 CALM      30.29R
RAWLINS        FAIR      54  36  50 NE3       30.26S
SARATOGA       FAIR      52  37  58 E10       30.30F
LARAMIE        FAIR      55  35  47 CALM      30.30R
CHEYENNE       FAIR      57  45  64 W6        30.22S
TORRINGTON     FAIR      62  57  83 NE10      30.14R
PINE BLUFFS    FAIR      61  46  59 E10       30.17R

$$



USA.gov is the U.S. government's official web portal to all federal, state and local government web resources and services.